Location: ??????
(41.3164°N, 22.6615°E)
Time: 11:33:55
(UTC+00:00)

CUBESAT XI-V - Visible Passes

Search period start: 30 June 2022 00:00
Search period end: 10 July 2022 00:00
Orbit: 666 x 692 km, 98.1° (Epoch: 29 June)

Date Brightness Start Highest point End Pass type
(mag) Time Alt. Az. Time Alt. Az. Time Alt. Az.
30 Jun ? 00:43:30 39° SW 00:44:34 46° W 00:49:00 10° NNW visible
30 Jun ? 23:41:03 27° ESE 23:42:52 39° ENE 23:47:09 10° N visible
01 Jul ? 01:19:27 19° WSW 01:20:17 20° W 01:23:41 10° NW visible
01 Jul ? 22:41:05 10° ENE 22:41:43 10° ENE 22:42:22 10° NE visible
02 Jul ? 00:17:00 48° SSE 00:18:17 88° W 00:22:54 10° NNW visible
02 Jul ? 23:14:34 16° ESE 23:16:49 22° ENE 23:20:21 10° NNE visible
03 Jul ? 00:52:58 33° SW 00:53:51 37° W 00:58:07 10° NNW visible
03 Jul ? 23:50:31 34° ESE 23:52:05 49° ENE 23:56:31 10° N visible
04 Jul ? 01:28:55 16° WSW 01:29:37 16° W 01:32:29 10° NW visible
04 Jul ? 22:48:52 10° E 22:50:51 13° ENE 22:52:50 10° NE visible
05 Jul ? 00:26:28 51° SSW 00:27:32 71° WSW 00:32:07 10° NNW visible
05 Jul ? 23:24:02 20° ESE 23:25:59 27° ENE 23:29:50 10° N visible
06 Jul ? 01:02:26 28° WSW 01:03:10 30° W 01:07:11 10° NW visible
07 Jul ? 00:00:00 43° SE 00:01:17 62° ENE 00:05:50 10° N visible
07 Jul ? 01:38:23 13° W 01:38:58 13° W 01:41:03 10° WNW visible
07 Jul ? 22:57:33 11° E 22:59:58 16° ENE 23:02:39 10° NNE visible
08 Jul ? 00:35:57 48° SW 00:36:47 56° W 00:41:18 10° NNW visible
08 Jul ? 23:33:30 25° ESE 23:35:09 33° ENE 23:39:15 10° N visible
09 Jul ? 01:11:54 23° WSW 01:12:27 24° W 01:16:10 10° NW visible
